When you browse on this site, cookies collect data to enhance your experience and personalize the content and advertising you see.
Visit our Privacy Policy to learn more. By continuing to use the site, you agree to this use of cookies and data.
  • în România
  • Lista ţărilor
  • Pe 7 zile
  • Temperatura apei
  • Hartă satelitară
  • Meteo pe hartă
  • Widget-uri
  • user-avatar
    Intrare

    Meteo pe oră la Ali Bayramli

    Astăzi, 20 Iunie, Joi

    Timp Temperatura Precipitaţii Vânt Presiune Umiditate
    00:00 +28°C° 0 mm 3 m/s 754 mmHg 39%
    01:00 +27°C° 0 mm 2 m/s 754 mmHg 42%
    02:00 +26°C° 0 mm 2 m/s 754 mmHg 45%
    03:00 +26°C° 0 mm 1 m/s 754 mmHg 48%
    04:00 +26°C° 0 mm 1 m/s 754 mmHg 45%
    05:00 +27°C° 0 mm 1 m/s 754 mmHg 43%
    06:00 +28°C° 0 mm 1 m/s 754 mmHg 40%
    07:00 +30°C° 0 mm 1 m/s 754 mmHg 34%
    08:00 +32°C° 0 mm 1 m/s 754 mmHg 28%
    09:00 +34°C° 0 mm 1 m/s 754 mmHg 23%
    10:00 +35°C° 0 mm 1 m/s 754 mmHg 20%
    11:00 +37°C° 0 mm 2 m/s 754 mmHg 18%
    12:00 +38°C° 0 mm 2 m/s 754 mmHg 16%
    13:00 +38°C° 0 mm 4 m/s 753 mmHg 16%
    14:00 +39°C° 0 mm 5 m/s 753 mmHg 17%
    15:00 +39°C° 0 mm 7 m/s 752 mmHg 17%
    16:00 +38°C° 0 mm 7 m/s 752 mmHg 22%
    17:00 +35°C° 0 mm 7 m/s 752 mmHg 26%
    18:00 +34°C° 0 mm 6 m/s 753 mmHg 31%
    19:00 +33°C° 0 mm 5 m/s 753 mmHg 33%
    20:00 +32°C° 0 mm 5 m/s 753 mmHg 36%
    21:00 +30°C° 0 mm 4 m/s 753 mmHg 38%
    22:00 +29°C° 0 mm 3 m/s 753 mmHg 40%
    23:00 +29°C° 0 mm 3 m/s 753 mmHg 41%

    Mâine, 21 Iunie, Vineri

    Timp Temperatura Precipitaţii Vânt Presiune Umiditate
    00:00 +28°C° 0 mm 3 m/s 753 mmHg 42%
    01:00 +28°C° 0 mm 3 m/s 753 mmHg 43%
    02:00 +27°C° 0 mm 2 m/s 753 mmHg 44%
    03:00 +27°C° 0 mm 2 m/s 753 mmHg 45%
    04:00 +27°C° 0.2 mm 2 m/s 753 mmHg 47%
    05:00 +27°C° 0.2 mm 3 m/s 753 mmHg 49%
    06:00 +27°C° 0.2 mm 3 m/s 754 mmHg 51%
    07:00 +28°C° 0.3 mm 3 m/s 754 mmHg 46%
    08:00 +30°C° 0.3 mm 3 m/s 754 mmHg 41%
    09:00 +31°C° 0.3 mm 3 m/s 754 mmHg 36%
    10:00 +33°C° 0.2 mm 3 m/s 754 mmHg 33%
    11:00 +34°C° 0.2 mm 3 m/s 754 mmHg 30%
    12:00 +36°C° 0.2 mm 4 m/s 754 mmHg 28%
    13:00 +36°C° 0.3 mm 5 m/s 754 mmHg 28%
    14:00 +36°C° 0.3 mm 7 m/s 754 mmHg 28%
    15:00 +38°C° 0.3 mm 9 m/s 754 mmHg 29%
    16:00 +37°C° 0 mm 9 m/s 754 mmHg 28%
    17:00 +37°C° 0 mm 8 m/s 754 mmHg 28%
    18:00 +35°C° 0 mm 8 m/s 754 mmHg 28%
    19:00 +34°C° 0.1 mm 7 m/s 754 mmHg 30%
    20:00 +33°C° 0.1 mm 5 m/s 754 mmHg 31%
    21:00 +31°C° 0.1 mm 3 m/s 755 mmHg 33%
    22:00 +30°C° 0 mm 3 m/s 755 mmHg 38%
    23:00 +30°C° 0 mm 3 m/s 755 mmHg 44%

    Poimâine, 22 Iunie, Sâmbătă

    Timp Temperatura Precipitaţii Vânt Presiune Umiditate
    00:00 +29°C° 0 mm 2 m/s 755 mmHg 49%
    01:00 +28°C° 0 mm 2 m/s 755 mmHg 51%
    02:00 +28°C° 0 mm 2 m/s 755 mmHg 53%
    03:00 +27°C° 0 mm 2 m/s 755 mmHg 54%
    04:00 +27°C° 0 mm 2 m/s 755 mmHg 52%
    05:00 +28°C° 0 mm 2 m/s 755 mmHg 50%
    06:00 +28°C° 0 mm 2 m/s 755 mmHg 48%
    07:00 +30°C° 0 mm 2 m/s 756 mmHg 43%
    08:00 +31°C° 0 mm 2 m/s 756 mmHg 37%
    09:00 +34°C° 0 mm 2 m/s 756 mmHg 32%
    10:00 +36°C° 0 mm 2 m/s 756 mmHg 28%
    11:00 +37°C° 0 mm 3 m/s 756 mmHg 24%
    12:00 +39°C° 0 mm 3 m/s 756 mmHg 20%
    13:00 +40°C° 0 mm 4 m/s 755 mmHg 20%
    14:00 +41°C° 0 mm 5 m/s 755 mmHg 19%
    15:00 +41°C° 0 mm 6 m/s 755 mmHg 18%
    16:00 +40°C° 0 mm 6 m/s 755 mmHg 21%
    17:00 +38°C° 0 mm 6 m/s 755 mmHg 25%
    18:00 +36°C° 0 mm 7 m/s 755 mmHg 28%
    19:00 +35°C° 0 mm 6 m/s 755 mmHg 32%
    20:00 +33°C° 0 mm 5 m/s 756 mmHg 35%
    21:00 +32°C° 0 mm 4 m/s 756 mmHg 39%
    22:00 +30°C° 0 mm 4 m/s 756 mmHg 41%
    23:00 +30°C° 0 mm 4 m/s 756 mmHg 43%

    23 Iunie, Duminică

    Timp Temperatura Precipitaţii Vânt Presiune Umiditate
    00:00 +29°C° 0 mm 3 m/s 756 mmHg 46%
    01:00 +28°C° 0 mm 3 m/s 756 mmHg 47%
    02:00 +28°C° 0 mm 2 m/s 756 mmHg 47%
    03:00 +27°C° 0 mm 1 m/s 756 mmHg 48%
    04:00 +28°C° 0 mm 1 m/s 756 mmHg 46%
    05:00 +29°C° 0 mm 1 m/s 756 mmHg 45%
    06:00 +29°C° 0 mm 1 m/s 756 mmHg 43%
    07:00 +31°C° 0 mm 1 m/s 756 mmHg 38%
    08:00 +33°C° 0 mm 1 m/s 756 mmHg 33%
    09:00 +35°C° 0 mm 1 m/s 757 mmHg 27%
    10:00 +36°C° 0 mm 1 m/s 756 mmHg 26%
    11:00 +38°C° 0 mm 2 m/s 756 mmHg 24%
    12:00 +39°C° 0 mm 3 m/s 756 mmHg 23%
    13:00 +40°C° 0 mm 3 m/s 756 mmHg 22%
    14:00 +41°C° 0 mm 4 m/s 755 mmHg 22%
    15:00 +42°C° 0 mm 4 m/s 755 mmHg 22%
    16:00 +41°C° 0 mm 5 m/s 755 mmHg 24%
    17:00 +39°C° 0 mm 5 m/s 755 mmHg 26%
    18:00 +37°C° 0 mm 5 m/s 755 mmHg 28%
    19:00 +36°C° 0 mm 4 m/s 755 mmHg 32%
    20:00 +34°C° 0 mm 3 m/s 756 mmHg 36%
    21:00 +31°C° 0 mm 2 m/s 756 mmHg 40%
    22:00 +31°C° 0 mm 2 m/s 756 mmHg 42%
    23:00 +30°C° 0 mm 2 m/s 756 mmHg 45%

    24 Iunie, Luni

    Timp Temperatura Precipitaţii Vânt Presiune Umiditate
    00:00 +29°C° 0 mm 1 m/s 756 mmHg 47%
    01:00 +29°C° 0 mm 2 m/s 756 mmHg 47%
    02:00 +29°C° 0 mm 2 m/s 756 mmHg 46%
    03:00 +28°C° 0 mm 2 m/s 756 mmHg 46%
    04:00 +29°C° 0 mm 2 m/s 756 mmHg 44%
    05:00 +30°C° 0 mm 2 m/s 756 mmHg 43%
    06:00 +30°C° 0 mm 2 m/s 756 mmHg 41%
    07:00 +32°C° 0 mm 2 m/s 756 mmHg 37%
    08:00 +35°C° 0 mm 2 m/s 756 mmHg 32%
    09:00 +37°C° 0 mm 3 m/s 756 mmHg 27%
    10:00 +38°C° 0 mm 4 m/s 756 mmHg 24%
    11:00 +41°C° 0 mm 4 m/s 756 mmHg 21%
    12:00 +43°C° 0 mm 5 m/s 755 mmHg 18%
    13:00 +42°C° 0 mm 6 m/s 755 mmHg 17%
    14:00 +42°C° 0 mm 6 m/s 755 mmHg 17%
    15:00 +43°C° 0 mm 7 m/s 755 mmHg 17%
    16:00 +41°C° 0 mm 6 m/s 754 mmHg 20%
    17:00 +39°C° 0 mm 6 m/s 754 mmHg 23%
    18:00 +38°C° 0 mm 6 m/s 754 mmHg 26%
    19:00 +35°C° 0 mm 5 m/s 754 mmHg 30%
    20:00 +34°C° 0 mm 3 m/s 755 mmHg 33%
    21:00 +32°C° 0 mm 2 m/s 755 mmHg 36%
    22:00 +31°C° 0 mm 3 m/s 755 mmHg 37%
    23:00 +31°C° 0 mm 3 m/s 755 mmHg 37%

    25 Iunie, Marţi

    Timp Temperatura Precipitaţii Vânt Presiune Umiditate
    00:00 +31°C° 0 mm 3 m/s 755 mmHg 38%
    01:00 +30°C° 0 mm 3 m/s 755 mmHg 38%
    02:00 +30°C° 0 mm 3 m/s 755 mmHg 38%
    03:00 +29°C° 0 mm 3 m/s 755 mmHg 38%
    04:00 +30°C° 0 mm 2 m/s 755 mmHg 36%
    05:00 +31°C° 0 mm 2 m/s 755 mmHg 35%
    06:00 +31°C° 0 mm 1 m/s 756 mmHg 33%
    07:00 +33°C° 0 mm 1 m/s 756 mmHg 29%
    08:00 +35°C° 0 mm 1 m/s 756 mmHg 26%
    09:00 +36°C° 0 mm 1 m/s 756 mmHg 22%
    10:00 +39°C° 0 mm 2 m/s 756 mmHg 19%
    11:00 +40°C° 0 mm 3 m/s 756 mmHg 16%
    12:00 +43°C° 0 mm 4 m/s 756 mmHg 14%
    13:00 +43°C° 0 mm 5 m/s 755 mmHg 14%
    14:00 +44°C° 0 mm 6 m/s 755 mmHg 13%
    15:00 +44°C° 0 mm 7 m/s 755 mmHg 13%
    16:00 +41°C° 0 mm 7 m/s 755 mmHg 17%
    17:00 +39°C° 0 mm 7 m/s 755 mmHg 21%
    18:00 +38°C° 0 mm 7 m/s 755 mmHg 25%
    19:00 +35°C° 0 mm 6 m/s 755 mmHg 29%
    20:00 +34°C° 0 mm 5 m/s 756 mmHg 34%
    21:00 +33°C° 0 mm 4 m/s 756 mmHg 39%
    22:00 +32°C° 0 mm 4 m/s 756 mmHg 41%
    23:00 +31°C° 0 mm 3 m/s 756 mmHg 44%
    Arată mai mult